Regional Weather Roundup
Issued by NWS Huntsville, AL

Home | Current Version | Previous Version | Text Only | Print | Product List | Glossary On
Versions: 1 2 3 4 5 6 7 8 9 10 11 12 13 14 15 16 17 18 19 20 21 22 23 24 25 26 27 28 29 30 31 32 33 34 35 36 37 38 39 40 41 42 43 44 45 46 47 48 49 50
000
ASUS44 KHUN 041210
RWRHUN

WEATHER ROUNDUP FOR THE TENNESSEE VALLEY
NATIONAL WEATHER SERVICE HUNTSVILLE AL
700 AM CDT SAT JUL 04 2015

ALZ001>004-041300-
NORTHWEST ALABAMA

CITY           SKY/WX    TMP DP  RH WIND       PRES   REMARKS
BANKHEAD NF      N/A     68  67  97 W3          N/A
SHOALS AIRPORT LGT RAIN  70  67  90 SW8       30.02S
6HR MIN TEMP:  70; 6HR MAX TEMP:  71; 6HR PCP:  0.08;

SHOALS TVA RES   N/A     70 N/A N/A MISG        N/A
$$

ALZ005>007-016-041300-
NORTH CENTRAL ALABAMA

CITY           SKY/WX    TMP DP  RH WIND       PRES   REMARKS
DECATUR AP     LGT RAIN  69  68  96 SW5       30.02R FOG
6HR MIN TEMP:  69; 6HR MAX TEMP:  71; 6HR PCP:  0.05;

HUNTSVILLE AP  RAIN      71  68  90 SW6       30.02R FOG
6HR MIN TEMP:  70; 6HR MAX TEMP:  72; 6HR PCP:  0.04;

HUN NWS/UAH      N/A     70  66  87 S5          N/A
MERIDIANVILLE  CLOUDY    70  64  83 S9        30.02R
REDSTONE ARSN  LGT RAIN  70  68  94 S6        30.01R FOG
VINEMONT AP    LGT RAIN  68  67  96 SW6       30.07R
$$

ALZ008>010-041300-
NORTHEAST ALABAMA

CITY           SKY/WX    TMP DP  RH WIND       PRES   REMARKS
ALBERTVILLE    RAIN      68  68 100 SW14      30.05R
FORT PAYNE     CLOUDY    68  64  88 SW5       30.02S
SCOTTSBORO AP  CLOUDY    72  68  88 SW9       30.03R
SCOTTSBORO HCN   N/A     70 N/A N/A MISG        N/A
VALLEY HEAD      N/A     68 N/A N/A MISG        N/A
$$

TNZ076-096-097-041300-
SOUTHEASTERN MIDDLE TENNESSEE

CITY           SKY/WX    TMP DP  RH WIND       PRES   REMARKS
TULLAHOMA      CLOUDY    66  66 100 SW7       30.02R
WINCHESTER     CLOUDY    70  66  88 SW7       30.02R
$$

...SURROUNDING SITES...

CITY           SKY/WX    TMP DP  RH WIND       PRES   REMARKS
ATLANTA        LGT RAIN  69  65  86 W7        30.07R
ANNISTON       LGT RAIN  69  67  93 CALM      30.06S FOG
BIRMINGHAM     TSTM      68  68 100 S7        30.08R VSB 1
CHATTANOOGA    CLOUDY    69  68  96 S3        30.02R FOG
CORINTH        CLOUDY    72  68  88 SW6       29.99S
DALTON         CLOUDY    68  68 100 S3        30.03S
GADSDEN        CLOUDY    79  64  61 W12       30.05R
GOLDEN TRNGL   TSTM      70  66  88 NW5       30.04R FOG
HALEYVILLE     RAIN      68  68 100 CALM      30.07R FOG
JACKSON TN     CLOUDY    72  70  93 S5        29.98R
MEMPHIS        CLOUDY    73  70  90 SW6       29.97R
NASHVILLE      CLOUDY    72  71  97 CALM      29.99R
ROME           LGT RAIN  69  67  93 VRB3      30.03S
SAVANNAH       CLOUDY    70  32  24 S3        30.00R
TUPELO         RAIN      71  67  87 CALM      29.99F FOG
TUSCALOOSA     PTSUNNY   74  71  91 CALM      30.04R
$$

...GULF COAST WEATHER...

CITY           SKY/WX    TMP DP  RH WIND       PRES   REMARKS
GULFPORT       CLOUDY    79  75  87 CALM      30.05R
PASCAGOULA     CLOUDY    81  76  84 SW5       30.06R
MOBILE         CLOUDY    78  76  93 SW6       30.08R FOG
GULF SHORES    PTSUNNY   82  75  81 SW6       30.07R
PENSACOLA      MOSUNNY   81  74  79 SW7       30.06R
DESTIN         MOSUNNY   83  76  79 VRB7      30.07R HX  91
PANAMA CITY    SUNNY     83  77  81 SW8       30.07R HX  91
APPALACHICOLA  SUNNY     84  77  79 SW3       30.08R HX  94
$$




USA.gov is the U.S. government's official web portal to all federal, state and local government web resources and services.